Location: Castillon
(43.1358°N, 0.8654°E)
Time: 19:57:30
(UTC+00:00)

Meteor 2-1 Rocket - Pass Details

Date: 24 January 2021
Orbit: 827 x 910 km, 81.3° (Epoch: 28 February)

Event Time Altitude Azimuth Distance (km) Brightness Sun altitude
Rises 18:14:02 0° 348° (NNW) 3,401 7.3 -13.8°
Reaches altitude 10° 18:16:28 10° 347° (NNW) 2,455 6.6 -14.2°
Maximum altitude 18:22:00 76° 263° (W) 857 4.3 -15.2°
Drops below altitude 10° 18:27:27 10° 178° (S) 2,422 6.7 -16.2°
Sets 18:29:51 0° 177° (S) 3,353 7.4 -16.6°
